Zurück zum Katalog

TDS 1

AktivWissenschaftPO
NORAD 40076·PAYLOAD·🇬🇧 United Kingdom

Gestartet Jul 8, 2014 von Baikonur Cosmodrome

Loading…

Nächste Überflüge (nächste 24 Stunden)

TLE

AktuellSource: Space-Track

Epoche: Sep 14, 2026, 10:55 UTC

1 40076U 14037H   26257.45498059  .00005660  00000-0  31237-3 0  9994
2 40076  98.3876 258.6294 0005315 342.4459  17.6586 15.14409926661738

Verfolge TDS 1 in Echtzeit mit AllMySat

Download on the App Store